Weather History for Mountain Home, ID

Change the Weather History Date:

Saturday, January 5, 2013

  Actual Average Record
Temperature  
Mean Temperature 9 °F -  
Max Temperature 21 °F 37 °F 58 °F (1927)
Min Temperature -4 °F - -19 °F (1942)
Degree Days  
Heating Degree Days 56 36  
Month to date heating degree days 231 180  
Cooling Degree Days 0 0  
Month to date cooling degree days 0 0  
Moisture  
Dew Point 6 °F    
Average Humidity 95    
Maximum Humidity 100    
Minimum Humidity 73    
Precipitation  
Precipitation 0.00 in 0.03 in 0.58 in (1909)
Month to date precipitation T 0.19  
Sea Level Pressure  
Sea Level Pressure 30.56 in    
Wind  
Wind Speed 5 mph (ENE)    
Max Wind Speed 17 mph    
Max Gust Speed -    
Visibility 10 miles    
Events      
T = Trace of Precipitation, MM = Missing Value Source: NWS Daily Summary

Daily Weather History Graph

Daily Weather History Graph

Search for Another Location

Airport:

Trip Planner

Search our weather history database for the weather conditions in past years. The results will help you decide how hot, cold, wet, or windy it might be!

Date:

Astronomy

Jan. 05, 2013 Rise Set
Actual Time 8:14 AM MST 5:23 PM MST
Civil Twilight 7:42 AM MST 5:55 PM MST
Nautical Twilight 7:07 AM MST 6:31 PM MST
Astronomical Twilight 6:32 AM MST 7:05 PM MST
Moon 1:20 AM MST (1/5) 12:20 PM MST (1/5)
Length of Visible Light 10h 12m
Length of Day
9h 08m
Last Quarter, 43% of the Moon is Illuminated
Jan 5
Last Quarter
Jan 11
New
Jan 18
First Quarter
Jan 26
Full
Feb 3
Last Quarter

Hourly Weather History & Observations

Time (MST) Temp. Windchill Dew Point Humidity Pressure Visibility Wind Dir Wind Speed Gust Speed Precip Events Conditions
12:58 AM -0.9 °F -8.9 °F -0.9 °F 100% 30.66 in 10.0 mi North 3.5 mph - N/A   Clear
1:58 AM -2.2 °F - -2.2 °F 100% 30.64 in 10.0 mi East 2.3 mph - N/A   Clear
2:58 AM -2.9 °F -11.2 °F -2.9 °F 100% 30.65 in 10.0 mi East 3.5 mph - N/A   Clear
3:58 AM -0.2 °F -10.1 °F -0.2 °F 100% 30.65 in 10.0 mi ENE 4.6 mph - 0.00 in   Clear
4:58 AM -0.4 °F -10.4 °F -0.4 °F 100% 30.63 in 10.0 mi ESE 4.6 mph - N/A   Clear
5:58 AM -1.3 °F -9.3 °F -1.3 °F 100% 30.64 in 10.0 mi ESE 3.5 mph - N/A   Clear
6:58 AM -3.3 °F - -3.3 °F 100% 30.66 in 10.0 mi ESE 1.2 mph - N/A   Clear
7:43 AM -4.0 °F - -4.0 °F 100% 30.45 in 9.0 mi East 2.3 mph - N/A   Clear
7:48 AM -2.2 °F - -2.2 °F 100% 30.45 in 9.0 mi East 2.3 mph - N/A   Clear
7:58 AM -2.6 °F -14.6 °F -2.6 °F 100% 30.67 in 10.0 mi East 5.8 mph - N/A   Clear
8:58 AM -0.8 °F -10.8 °F -0.8 °F 100% 30.67 in 10.0 mi East 4.6 mph - N/A   Clear
9:58 AM 2.8 °F -4.6 °F 2.8 °F 100% 30.66 in 10.0 mi East 3.5 mph - N/A   Clear
10:58 AM 9.7 °F -2.4 °F 9.7 °F 100% 30.65 in 10.0 mi ESE 8.1 mph - N/A   Clear
11:58 AM 14.5 °F 0.5 °F 9.5 °F 80% 30.61 in 10.0 mi ESE 12.7 mph - N/A   Clear
12:58 PM 17.8 °F 2.4 °F 11.7 °F 77% 30.57 in 10.0 mi ESE 17.3 mph - N/A   Clear
1:58 PM 19.6 °F 4.7 °F 12.2 °F 73% 30.53 in 10.0 mi ESE 17.3 mph - N/A   Clear
2:58 PM 19.6 °F 13.0 °F 13.3 °F 77% 30.51 in 10.0 mi South 4.6 mph - N/A   Clear
3:58 PM 19.6 °F 14.5 °F 13.1 °F 76% 30.52 in 10.0 mi West 3.5 mph - N/A   Clear
4:58 PM 13.6 °F 4.6 °F 13.3 °F 98% 30.52 in 10.0 mi NW 5.8 mph - N/A   Clear
5:58 PM 12.9 °F 5.2 °F 12.7 °F 99% 30.52 in 10.0 mi North 4.6 mph - N/A   Clear
6:58 PM 13.1 °F - 12.9 °F 99% 30.50 in 10.0 mi NNW 1.2 mph - N/A   Clear
7:58 PM 10.4 °F - 10.4 °F 100% 30.48 in 10.0 mi NE 2.3 mph - N/A   Clear
8:58 PM 10.6 °F 4.3 °F 10.6 °F 100% 30.47 in 10.0 mi NW 3.5 mph - N/A   Clear
9:58 PM 12.4 °F 6.3 °F 12.4 °F 100% 30.45 in 10.0 mi NNE 3.5 mph - N/A   Partly Cloudy
10:58 PM 13.5 °F 7.5 °F 13.5 °F 100% 30.43 in 10.0 mi North 3.5 mph - N/A   Overcast
11:58 PM 14.9 °F - 14.9 °F 100% 30.41 in 10.0 mi NW 2.3 mph - N/A   Overcast